Printer-friendly version

IAU Minor Planet Center

Minor Planet Center

MPEC 2005-S03 : 2005 RC34

The following Minor Planet Electronic Circular may be linked-to from your own Web pages, but must not otherwise be redistributed electronically.


Read MPEC 2005-S02 Read MPEC 2005-S04


M.P.E.C. 2005-S03                                Issued 2005 Sept. 16, 16:44 UT

     The Minor Planet Electronic Circulars contain information on unusual
         minor planets and routine data on comets.  They are published
   on behalf of Commission 20 of the International Astronomical Union by the
          Minor Planet Center, Smithsonian Astrophysical Observatory,
                          Cambridge, MA 02138, U.S.A.

                  Supported in part by the Brinson Foundation
             Prepared using the Tamkin Foundation Computer Network

                              MPC@CFA.HARVARD.EDU
          URL http://cfa-www.harvard.edu/iau/mpc.html  ISSN 1523-6714

                                   2005 RC34

Observations:
     K05R34C* C2005 09 15.11965 17 39 06.31 +33 22 39.1          18.6   ES003704
     K05R34C  C2005 09 15.13179 17 39 10.98 +33 23 29.4          19.1   ES003704
     K05R34C  C2005 09 15.14402 17 39 15.83 +33 24 19.8          19.1   ES003704
     K05R34C  C2005 09 15.15618 17 39 20.61 +33 25 07.3          19.2   ES003704
     K05R34C  C2005 09 15.16829 17 39 25.35 +33 25 57.5          19.0   ES003704
     K05R34C  C2005 09 15.93846 17 44 42.75 +34 17 50.5          18.7 R ES003118
     K05R34C  C2005 09 15.93962 17 44 43.31 +34 17 55.1          18.7 R ES003118
     K05R34C  C2005 09 15.94078 17 44 43.74 +34 17 58.9          18.3 R ES003118
     K05R34C  C2005 09 15.94309 17 44 44.64 +34 18 07.4          18.6 R ES003118
     K05R34C  C2005 09 15.94425 17 44 45.01 +34 18 12.1          18.6 R ES003118
     K05R34C 5C2005 09 16.12060 17 46 00.51 +34 30 28.5          18.4 R ES003673
     K05R34C 5C2005 09 16.12616 17 46 02.61 +34 30 49.9                 ES003673
     K05R34C 5C2005 09 16.13299 17 46 05.34 +34 31 16.4                 ES003673
     K05R34C 5C2005 09 16.14028 17 46 08.23 +34 31 45.5                 ES003673
     K05R34C  C2005 09 16.19775 17 46 31.11 +34 35 31.3          18.3 R ES003854
     K05R34C  C2005 09 16.20063 17 46 32.28 +34 35 42.9          18.3 R ES003854
     K05R34C  C2005 09 16.20351 17 46 33.48 +34 35 53.9          18.3 R ES003854

Observer details:
118 Modra.  Observers S. Gajdos, J. Vilagi.  0.6-m f/5.5 reflector + CCD.
673 Table Mountain Observatory, Wrightwood.  Observer J. Young.  0.6-m f/16
    Cassegrain + CCD.
704 Lincoln Laboratory ETS, New Mexico.  Observers M. Bezpalko, L. Manguso,
    D. Torres, R. Kracke, A. Milner, H. Love.  Measurers J. Stuart, R. Sayer,
    J. Evans, J. Kommers.  1.0-m f/2.15 reflector + CCD.
854 Sabino Canyon Observatory, Tucson.  Observer J. E. McGaha.  0.36-m f/10.0
    Schmidt-Cassegrain + CCD.

Orbital elements:
2005 RC34
Epoch 2005 Sept. 7.0 TT = JDT 2453620.5                 MPC
M   2.89162              (2000.0)            P               Q
n   0.33268530     Peri.   35.13274     +0.82710949     +0.53376051
a   2.0627518      Node   291.67017     -0.54923191     +0.70110296
e   0.5142556      Incl.   10.91931     -0.11930718     +0.47281536
P   2.96           H   19.5           G   0.15
From 17 observations 2005 Sept. 15-16.

Ephemeris:
2005 RC34                a,e,i = 2.06, 0.51, 11                  q = 1.0020
Date    TT    R. A. (2000) Decl.     Delta      r     Elong.  Phase     V
2005 09 17    17 52.21   +35 28.4    0.191    1.028    91.4    77.8    18.7
2005 09 27    19 10.79   +44 10.3    0.205    1.061   101.2    67.9    18.6
2005 10 07    20 36.52   +47 43.9    0.232    1.106   111.6    57.1    18.6
2005 10 17    21 53.30   +46 49.1    0.270    1.160   121.2    47.3    18.8
2005 10 27    22 52.76   +43 25.1    0.321    1.220   128.6    39.5    19.0
2005 11 06    23 37.14   +39 14.4    0.386    1.286   133.1    34.3    19.4
2005 11 16    00 11.40   +35 16.7    0.464    1.355   134.3    31.5    19.8
2005 11 26    00 39.33   +31 56.8    0.558    1.425   132.7    30.6    20.3
2005 12 06    01 03.44   +29 20.5    0.666    1.497   129.0    30.7    20.8
2005 12 16    01 25.30   +27 25.6    0.787    1.569   124.2    31.2    21.3
2005 12 26    01 45.77   +26 05.7    0.922    1.640   118.8    31.7    21.7

Kyle E. Smalley              (C) Copyright 2005 MPC           M.P.E.C. 2005-S03

Read MPEC 2005-S02 Read MPEC 2005-S04


Our Web policy. Index to the CBAT/MPC/ICQ pages.


Valid HTML 4.01!